AirNav   Air Wisconsin Up To $57,000 Bonus
 
 734 users online  

2CA4 Blackinton Airport
Valley Center, California, USA

GOING TO VALLEY CENTER?


FAA INFORMATION EFFECTIVE 01 DECEMBER 2022

Location

FAA Identifier: 2CA4
Lat/Long: 33-15-32.1260N 117-05-32.1120W
33-15.535433N 117-05.535200W
33.2589239,-117.0922533
(estimated)
Elevation: 1156 ft. / 352 m (estimated)
Variation: 13E (1985)
From city: 4 miles NW of VALLEY CENTER, CA
Time zone: UTC -8 (UTC -7 during Daylight Saving Time)
Zip code: 92082

Airport Operations

Airport use: Private use. Permission required prior to landing
Activation date: 10/1966
Control tower: no
ARTCC: LOS ANGELES CENTER
FSS: SAN DIEGO FLIGHT SERVICE STATION
Attendance: UNATNDD
Wind indicator: yes
Segmented circle: yes

Airport Communications

WX AWOS-3P at L18 (10 nm NW): 118.425 (760-723-6073)
WX ASOS at CRQ (12 nm SW): PHONE 760-930-0864
WX ASOS at OKB (13 nm W): 127.8 (760-439-9683)
WX ASOS at RNM (16 nm SE): PHONE 760-789-7699
WX AWOS-3 at F70 (19 nm N): 119.025 (951-696-1018)

Nearby radio navigation aids

VOR radial/distance  VOR name  Freq  Var
OCNr071/16.4OCEANSIDE VORTAC115.3015E
JLIr271/26.4JULIAN VORTAC114.0015E
MZBr358/29.4MISSION BAY VORTAC117.8015E
HDFr157/(31.4)HOMELAND VOR112.0514E
PGYr338/39.3POGGI VORTAC116.4514E

Airport Services

Runway Information

Runway 17/35

Dimensions: 2200 x 50 ft. / 671 x 15 m
Surface: asphalt, in good condition
RUNWAY 17  RUNWAY 35
Traffic pattern: leftleft
Displaced threshold: no130 ft.
Markings: nonprecisionnonprecision
Obstructions: noneplines road

Airport Ownership and Management from official FAA records

Ownership: Privately-owned
Owner: BLACKINTON AIRPORT HOA
30114 AIRFLIGHT DRIVE
VALLEY CENTER, CA 92082
Phone (760) 533-6077
Manager: PETER GORMAN
30210 AIRFLIGHT DRIVE
VALLEY CENTER, CA 92082
Phone (760) 533-6077

Airport Operational Statistics

Aircraft based on the field: 12
Single engine airplanes: 12
    

Additional Remarks

LAND RWY 35, TKOF RWY 17.
FOR CD CTC LOS ANGELES ARTCC AT 661-575-2079.

Instrument Procedures

There are no published instrument procedures at 2CA4.

Some nearby airports with instrument procedures:

L18 - Fallbrook Community Airpark (10 nm NW)
KCRQ - Mc Clellan-Palomar Airport (12 nm SW)
KOKB - Bob Maxwell Memorial Airfield (13 nm W)
KNFG - Camp Pendleton MCAS (Munn Field) Airport (13 nm W)
KRNM - Ramona Airport (16 nm SE)
F70 - French Valley Airport (19 nm N)
 
Loc | Ops | Rwys | IFR | FBO | Links
Com | Nav | Svcs | Stats | Notes
Area around 2CA4 (Blackinton Airport)
 
Road maps at: MapQuest Bing Google
 
Aerial photo
WARNING: Photo may not be current or correct
Aerial photo of 2CA4 (Blackinton Airport)
Photo by Susan Wilson
Photo taken 28-Feb-2011
looking north.

Do you have a better or more recent aerial photo of Blackinton Airport that you would like to share? If so, please send us your photo.

 
Sectional chart

 
Airport distance calculator
Flying to Blackinton Airport? Find the distance to fly.

From to 2CA4

Sunrise and sunset
Times for 05-Dec-2022
 Local
(UTC-8)
 Zulu
(UTC)
Morning civil twilight06:1114:11
Sunrise06:3814:38
Sunset16:4000:40
Evening civil twilight17:0701:07

Current date and time
Zulu (UTC)  06-Dec-2022 07:01:37
Local (UTC-8)  05-Dec-2022 23:01:37
 
METAR
KL18 
10nm NW 
060655Z AUTO 00000KT 10SM SCT022 09/07 A3004 RMK AO2
KNFG 
12nm W 
060652Z AUTO 03003KT 10SM CLR 07/04 A3005 RMK AO2 SLP175 T00720044 $
KCRQ 
12nm SW 
060653Z AUTO 07004KT 10SM CLR 12/08 A3003 RMK AO2 SLP166 T01170083
KOKB 
13nm W 
060652Z AUTO 00000KT 10SM BKN034 07/06 A3004 RMK AO2 SLP171 T00720056
KRNM 
16nm SE 
060653Z AUTO 05003KT 10SM FEW025 07/06 A3003 RMK AO2 SLP166 T00720061
KNXF 
18nm W 
060656Z AUTO 10SM CLR 09/07 A3003 RMK AO2 SLP257 T00890067 PWINO $
KF70 
19nm N 
060655Z AUTO 00000KT 10SM CLR 07/06 A3004 RMK AO2
TAF
KNFG 
12nm W 
0603/0703 VRB05KT 9999 BKN250 540201 520309 521202 QNH3001INS BECMG 0606/0608 VRB05KT 9999 OVC020 540201 520309 521202 QNH3002INS TEMPO 0610/0615 6000 -SHRA BR FM061830 24010KT 9999 SCT025 500000 QNH3000INS T07/0614Z T17/0621Z
KCRQ 
12nm SW 
060520Z 0606/0706 VRB04KT P6SM VCSH SCT030 TEMPO 0610/0614 6SM -SHRA BKN020 FM062000 27010KT P6SM SCT035 FM070200 26004KT P6SM SCT040
NOTAMs
Click for the latest NOTAMs
NOTAMs are issued by the DoD/FAA and will open in a separate window not controlled by AirNav.

 

 
 

Would you like to see your business listed on this page?

 If your business provides an interesting product or service to pilots, flight crews, aircraft, or users of the Blackinton Airport, you should consider listing it here.  To start the listing process, click on the button below
 
Add a business
 

Other Pages about Blackinton Airport

Update a link
 
Copyright © AirNav, LLC. All rights reserved. Privacy Policy  Contact